Voltar ao catálogo

STARLINK-32635

AtivoComunicaçõesVLEO
NORAD 62155·PAYLOAD·🇺🇸 United States

Lançado Nov 30, 2024 de Cape Canaveral Space Force Station

Loading…

Próximas Passagens (próximas 24 horas)

TLE

AtualizadoSource: CelesTrak SupGP

Época: Sep 14, 2026, 21:00 UTC

1 62155C 24224S   26257.87548611 -.00013452  00000+0 -48711-3 0  2572
2 62155  42.9997 177.2614 0001406 260.7653 178.9475 15.27592046    12

Acompanhe STARLINK-32635 em tempo real com AllMySat

Download on the App Store